| time (UTC) | temp C | wind direction | speed KPH | gust KPH | rain 1hr cm | rain 24hr cm | rain mn cm | humidity % | barometer mb |
| 20260504120206 | 15 | 261 | 17.7 | 25.7 | 0.00 | 0.74 | 0.25 | 54 | 1009.0 |
| 20260504100206 | 13 | 282 | 14.5 | 29.0 | 0.00 | 0.84 | 0.25 | 65 | 1008.3 |
| 20260504080706 | 10 | 299 | 19.3 | 27.4 | 0.00 | 0.84 | 0.25 | 89 | 1007.6 |
| 20260504060205 | 11 | 286 | 19.3 | 27.4 | 0.00 | 0.84 | 0.25 | 91 | 1005.5 |
| 20260504050707 | 12 | 286 | 19.3 | 25.7 | 0.03 | 0.84 | 0.25 | 91 | 1004.6 |
| 20260504045705 | 12 | 277 | 14.5 | 25.7 | 0.00 | 0.81 | 0.23 | 91 | 1004.4 |
| 20260504045207 | 12 | 288 | 8.0 | 16.1 | 0.00 | 0.81 | 0.23 | 91 | 1004.4 |
| 20260504044706 | 12 | 261 | 9.7 | 22.5 | 0.00 | 0.81 | 0.23 | 91 | 1004.4 |
| 20260504042707 | 12 | 258 | 8.0 | 25.7 | 0.00 | 0.81 | 0.23 | 91 | 1004.2 |
| 20260504042206 | 12 | 246 | 14.5 | 24.1 | 0.00 | 0.81 | 0.23 | 91 | 1004.1 |
| 20260504041207 | 12 | 246 | 9.7 | 24.1 | 0.00 | 0.81 | 0.23 | 91 | 1004.1 |
| 20260504040706 | 12 | 244 | 11.3 | 24.1 | 0.00 | 0.81 | 0.23 | 91 | 1004.1 |
| 20260504040205 | 12 | 286 | 9.7 | 22.5 | 0.00 | 0.81 | 0.23 | 91 | 1004.1 |
| 20260504035706 | 12 | 247 | 9.7 | 20.9 | 0.00 | 0.81 | 0.23 | 91 | 1004.1 |
| 20260504035205 | 12 | 208 | 11.3 | 20.9 | 0.00 | 0.81 | 0.23 | 91 | 1004.1 |
| 20260504034206 | 12 | 231 | 9.7 | 22.5 | 0.00 | 0.81 | 0.23 | 91 | 1004.2 |
| 20260504033705 | 12 | 229 | 8.0 | 11.3 | 0.00 | 0.81 | 0.23 | 91 | 1004.2 |
| 20260504033205 | 12 | 259 | 8.0 | 12.9 | 0.00 | 0.81 | 0.23 | 91 | 1004.2 |
| 20260504032706 | 12 | 231 | 6.4 | 12.9 | 0.00 | 0.81 | 0.23 | 91 | 1004.2 |
| 20260504030705 | 12 | 267 | 6.4 | 16.1 | 0.00 | 0.81 | 0.23 | 91 | 1004.2 |
| 20260504025205 | 12 | 257 | 11.3 | 24.1 | 0.00 | 0.81 | 0.23 | 91 | 1004.3 |
| 20260504024705 | 12 | 239 | 11.3 | 20.9 | 0.00 | 0.81 | 0.23 | 91 | 1004.3 |
| 20260504024205 | 12 | 247 | 12.9 | 24.1 | 0.00 | 0.81 | 0.23 | 91 | 1004.3 |
| 20260504023707 | 12 | 268 | 14.5 | 24.1 | 0.00 | 0.81 | 0.23 | 91 | 1004.4 |
| 20260504023205 | 12 | 290 | 9.7 | 12.9 | 0.00 | 0.81 | 0.23 | 91 | 1004.4 |
| 20260504022705 | 12 | 258 | 16.1 | 25.7 | 0.00 | 0.81 | 0.23 | 91 | 1004.4 |
| 20260504022207 | 12 | 247 | 9.7 | 22.5 | 0.00 | 0.81 | 0.23 | 91 | 1004.3 |
| 20260504021707 | 12 | 251 | 12.9 | 27.4 | 0.00 | 0.81 | 0.23 | 91 | 1004.3 |
| 20260504020207 | 12 | 261 | 11.3 | 22.5 | 0.00 | 0.81 | 0.23 | 91 | 1004.4 |
| 20260504015705 | 12 | 261 | 11.3 | 25.7 | 0.00 | 0.81 | 0.23 | 91 | 1004.3 |
| 20260504013205 | 12 | 224 | 9.7 | 11.3 | 0.00 | 0.81 | 0.23 | 91 | 1004.1 |
| 20260504012706 | 12 | 203 | 8.0 | 12.9 | 0.00 | 0.81 | 0.23 | 91 | 1004.1 |
| 20260504011705 | 12 | 217 | 4.8 | 9.7 | 0.00 | 0.81 | 0.23 | 91 | 1004.1 |
| 20260504010707 | 12 | 191 | 4.8 | 9.7 | 0.00 | 0.81 | 0.23 | 91 | 1004.2 |
| 20260504010205 | 12 | 198 | 4.8 | 9.7 | 0.00 | 0.81 | 0.23 | 91 | 1004.2 |
| 20260504005207 | 12 | 198 | 1.6 | 9.7 | 0.00 | 0.81 | 0.23 | 91 | 1004.2 |
| 20260504004707 | 12 | 198 | 4.8 | 8.0 | 0.00 | 0.81 | 0.23 | 91 | 1004.2 |
| 20260504004205 | 12 | 184 | 0.0 | 0.0 | 0.00 | 0.81 | 0.23 | 91 | 1004.2 |
| 20260504003205 | 12 | 183 | 0.0 | 1.6 | 0.03 | 0.81 | 0.23 | 91 | 1004.2 |
| 20260504002705 | 12 | 183 | 0.0 | 3.2 | 0.03 | 0.81 | 0.23 | 91 | 1004.2 |
| 20260504002205 | 12 | 183 | 3.2 | 4.8 | 0.03 | 0.81 | 0.23 | 90 | 1004.1 |
| 20260504001706 | 12 | 173 | 4.8 | 9.7 | 0.03 | 0.81 | 0.23 | 90 | 1004.1 |
| 20260504000705 | 12 | 170 | 4.8 | 8.0 | 0.03 | 0.81 | 0.23 | 90 | 1004.0 |
| 20260504000208 | 12 | 151 | 6.4 | 9.7 | 0.03 | 0.81 | 0.23 | 90 | 1004.0 |
| 20260503235206 | 12 | 155 | 8.0 | 9.7 | 0.05 | 0.81 | 0.23 | 90 | 1004.2 |
| 20260503234705 | 12 | 172 | 4.8 | 8.0 | 0.08 | 0.81 | 0.23 | 90 | 1004.2 |
| 20260503234206 | 12 | 140 | 4.8 | 8.0 | 0.10 | 0.81 | 0.23 | 90 | 1004.3 |
| 20260503233705 | 12 | 140 | 4.8 | 8.0 | 0.08 | 0.79 | 0.18 | 90 | 1004.3 |
| 20260503233206 | 12 | 140 | 3.2 | 8.0 | 0.08 | 0.79 | 0.18 | 90 | 1004.3 |
| 20260503225705 | 12 | 118 | 8.0 | 9.7 | 0.18 | 0.76 | 0.15 | 90 | 1004.8 |
| 20260503225205 | 12 | 119 | 8.0 | 9.7 | 0.23 | 0.76 | 0.15 | 90 | 1004.8 |
| 20260503224707 | 12 | 117 | 8.0 | 11.3 | 0.18 | 0.74 | 0.13 | 90 | 1004.9 |
| 20260503222206 | 12 | 110 | 9.7 | 11.3 | 0.15 | 0.69 | 0.08 | 90 | 1005.0 |
| 20260503221705 | 12 | 120 | 6.4 | 8.0 | 0.18 | 0.69 | 0.08 | 90 | 1005.4 |
| 20260503221206 | 12 | 146 | 4.8 | 8.0 | 0.23 | 0.69 | 0.08 | 90 | 1005.4 |
| 20260503220205 | 12 | 124 | 4.8 | 8.0 | 0.18 | 0.61 | 0.03 | 89 | 1005.6 |
| 20260503212205 | 12 | 92 | 1.6 | 3.2 | 0.25 | 0.51 | 0.51 | 88 | 1005.9 |
| 20260503211706 | 12 | 91 | 1.6 | 1.6 | 0.23 | 0.48 | 0.48 | 88 | 1005.9 |
| 20260503211205 | 12 | 91 | 0.0 | 0.0 | 0.18 | 0.46 | 0.46 | 88 | 1005.8 |
| 20260503210205 | 12 | 91 | 0.0 | 0.0 | 0.18 | 0.43 | 0.43 | 88 | 1005.9 |
| 20260503205704 | 12 | 91 | 1.6 | 4.8 | 0.13 | 0.38 | 0.38 | 88 | 1006.0 |
| 20260503205205 | 12 | 23 | 1.6 | 3.2 | 0.13 | 0.36 | 0.36 | 88 | 1006.0 |
| 20260503204205 | 12 | 20 | 0.0 | 1.6 | 0.13 | 0.33 | 0.33 | 87 | 1005.6 |
| 20260503202209 | 12 | 21 | 4.8 | 4.8 | 0.15 | 0.28 | 0.28 | 87 | 1005.8 |
| 20260503201705 | 12 | 21 | 3.2 | 4.8 | 0.15 | 0.28 | 0.28 | 87 | 1005.8 |
| 20260503194205 | 13 | 355 | 8.0 | 9.7 | 0.08 | 0.18 | 0.18 | 85 | 1006.3 |
| 20260503193706 | 13 | 293 | 3.2 | 4.8 | 0.05 | 0.15 | 0.15 | 85 | 1006.7 |
| 20260503193205 | 13 | 22 | 1.6 | 4.8 | 0.03 | 0.13 | 0.13 | 84 | 1006.7 |
| 20260503192705 | 13 | 23 | 3.2 | 8.0 | 0.00 | 0.10 | 0.10 | 84 | 1006.4 |
| 20260503192206 | 13 | 22 | 4.8 | 11.3 | 0.00 | 0.10 | 0.10 | 84 | 1006.4 |
| 20260503191705 | 13 | 350 | 8.0 | 9.7 | 0.00 | 0.10 | 0.10 | 83 | 1006.4 |
| 20260503191204 | 13 | 339 | 6.4 | 9.7 | 0.00 | 0.10 | 0.10 | 83 | 1006.0 |
| 20260503185705 | 13 | 353 | 3.2 | 3.2 | 0.00 | 0.10 | 0.10 | 82 | 1006.0 |
| 20260503185206 | 13 | 353 | 4.8 | 8.0 | 0.00 | 0.10 | 0.10 | 81 | 1005.9 |
| 20260503184205 | 13 | 0 | 8.0 | 9.7 | 0.00 | 0.10 | 0.10 | 81 | 1005.8 |
| 20260503183705 | 13 | 7 | 4.8 | 9.7 | 0.00 | 0.10 | 0.10 | 81 | 1005.7 |
| 20260503183205 | 13 | 9 | 8.0 | 9.7 | 0.00 | 0.10 | 0.10 | 80 | 1005.7 |
| 20260503180205 | 14 | 353 | 4.8 | 8.0 | 0.00 | 0.10 | 0.10 | 80 | 1005.9 |
| 20260503174205 | 15 | 9 | 1.6 | 4.8 | 0.00 | 0.10 | 0.10 | 79 | 1006.2 |
| 20260503173204 | 15 | 9 | 3.2 | 4.8 | 0.00 | 0.10 | 0.10 | 79 | 1006.2 |
| 20260503172705 | 15 | 9 | 3.2 | 4.8 | 0.00 | 0.10 | 0.10 | 78 | 1006.3 |
| 20260503171705 | 15 | 8 | 3.2 | 4.8 | 0.00 | 0.10 | 0.10 | 77 | 1006.3 |
| 20260503170205 | 15 | 16 | 4.8 | 11.3 | 0.00 | 0.10 | 0.10 | 75 | 1006.3 |
| 20260503150704 | 17 | 288 | 6.4 | 9.7 | 0.00 | 0.10 | 0.10 | 67 | 1007.6 |
| 20260503131204 | 16 | 215 | 4.8 | 8.0 | 0.00 | 0.10 | 0.10 | 79 | 1008.8 |